Data for 05/17/2018

Time Sea-Level Adjusted Pressure Absolute Pressure Temperature Relative Humidity Dew Point   
(mb) (inHg) (mb) (inHg) (C) (F) (%) (C) (F)
00:05 1016 30 845 24.95 9.3 48.7 77 5.4 41.7
00:10 1016 30 845 24.95 9.1 48.3 78 5.4 41.7
00:15 1016 30 845 24.95 9.1 48.3 78 5.5 41.9
00:20 1016 30 845 24.95 9 48.2 77 5.3 41.5
00:25 1016 30 845 24.95 9 48.2 76 5.1 41.2
00:30 1016 30 845 24.95 9.1 48.4 76 5.1 41.2
00:35 1016 30 845 24.95 9.1 48.3 76 5.1 41.1
00:40 1016 30 845 24.95 9.1 48.4 75 5 40.9
00:45 1016 30 845 24.95 9.1 48.3 75 5 40.9
00:50 1016 30 845 24.95 8.9 48.1 76 4.9 40.7
00:55 1016 30 845 24.95 8.9 48 76 4.8 40.7
01:00 1016 30 845 24.95 8.7 47.6 76 4.7 40.4
01:05 1016 30 845 24.95 8.5 47.3 76 4.5 40.2
01:10 1016 30 845 24.95 8.6 47.4 75 4.4 39.9
01:15 1016 30 845 24.95 8.8 47.9 74 4.4 39.9
01:20 1016 30 845 24.95 8.9 48.1 74 4.5 40.1
01:25 1016 30 845 24.95 8.9 48.1 74 4.5 40.1
01:30 1016 30 845 24.95 8.8 47.8 76 4.7 40.5
01:35 1016 30 845 24.95 8.4 47.2 75 4.3 39.8
01:40 1016 30 845 24.95 8.6 47.5 75 4.4 39.9
01:45 1016 30 845 24.95 8.7 47.7 73 4.2 39.5
01:50 1016 30 845 24.95 9.1 48.3 72 4.3 39.7
01:55 1016 30 845 24.95 9.2 48.5 71 4.2 39.6
02:00 1016 30 845 24.95 9.2 48.5 71 4.3 39.8
02:05 1016 30 845 24.95 9 48.3 71 4.1 39.5
02:10 1016 30 845 24.95 8.9 48.1 71 4 39.2
02:15 1016 30 845 24.95 8.9 47.9 71 4 39.1
02:20 1016 30 845 24.95 8.9 48 71 3.9 39.1
02:25 1016 30 845 24.95 8.8 47.9 70 3.7 38.7
02:30 1016 30 845 24.95 8.9 48.1 70 3.8 38.8
02:35 1016 30 845 24.95 8.9 48.1 70 3.8 38.8
02:40 1016 30 845 24.95 8.9 48 70 3.8 38.8
02:45 1016 30 845 24.95 8.7 47.7 72 3.9 39
02:50 1016 30 845 24.95 8.5 47.3 73 3.9 38.9
02:55 1016 30 845 24.95 8.2 46.7 74 3.9 39
03:00 1016 30 845 24.95 7.8 46.1 76 3.8 38.8
03:05 1016 30 845 24.95 7.9 46.2 74 3.5 38.4
03:10 1016 30 845 24.95 8 46.4 74 3.7 38.7
03:15 1016 30 845 24.95 7.7 45.8 76 3.8 38.8
03:20 1016 30 845 24.95 7.3 45.2 77 3.5 38.3
03:25 1016 30 845 24.95 7.4 45.2 77 3.5 38.3
03:30 1016 30 845 24.95 7.4 45.4 76 3.4 38.1
03:35 1016 30 845 24.95 7.5 45.6 75 3.4 38.1
03:40 1016 30 845 24.95 7.6 45.7 74 3.3 38
03:45 1016 30 845 24.95 7.6 45.8 74 3.3 37.9
03:50 1016 30 845 24.95 7.6 45.8 74 3.4 38.1
03:55 1016 30 845 24.95 7.4 45.3 75 3.3 37.9
04:00 1016 30 845 24.95 7.2 45 76 3.2 37.8
04:05 1016 30 845 24.95 7.1 44.8 75 3.1 37.5
04:10 1016 30 845 24.95 7.4 45.4 75 3.2 37.8
04:15 1016 30 845 24.95 7.4 45.2 76 3.3 38
04:20 1016 30 845 24.95 7.1 44.7 78 3.4 38.2
04:25 1016 30 845 24.95 6.9 44.4 78 3.3 38
04:30 1016 30 845 24.95 7 44.6 76 3.1 37.5
04:35 1016 30 845 24.95 7.2 44.9 76 3.3 37.9
04:40 1016 30 845 24.95 7 44.6 76 3.1 37.6
04:45 1016 30 845 24.95 7.1 44.8 75 3.1 37.6
04:50 1016 30 845 24.95 7.3 45.1 75 3.1 37.5
04:55 1016 30 845 24.95 7.3 45.2 74 3 37.4
05:00 1016 30 845 24.95 7.4 45.3 74 3.1 37.6
05:05 1016 30 845 24.95 7.4 45.3 73 3 37.4
05:10 1016 30 845 24.95 7.5 45.4 74 3.1 37.6
05:15 1016 30 845 24.95 7.3 45.1 75 3.2 37.7
05:20 1016 30 845 24.95 7.1 44.7 75 3 37.4
05:25 1016 30 845 24.95 6.9 44.5 75 2.9 37.2
05:30 1016 30 845 24.95 7.1 44.7 75 2.9 37.1
05:35 1016 30 845 24.95 7.2 45 74 2.9 37.2
05:40 1016 30 845 24.95 7.5 45.6 73 2.9 37.3
05:45 1016 30 845 24.95 7.8 46 72 3.1 37.5
05:50 1016 30 845 24.95 7.9 46.3 72 3.2 37.8
05:55 1016 30 845 24.95 8 46.4 72 3.2 37.8
06:00 1016 30 845 24.95 8 46.3 72 3.2 37.8
06:05 1016 30 845 24.95 8.1 46.6 71 3.3 37.9
06:10 1016 30 845 24.95 8.4 47.1 70 3.3 38
06:15 1016 30 845 24.95 8.6 47.4 70 3.4 38.1
06:20 1016 30 845 24.95 8.6 47.5 70 3.5 38.3
06:25 1016 30 845 24.95 8.9 48.1 69 3.5 38.3
06:30 1016 30 845 24.95 9.1 48.4 69 3.8 38.8
06:35 1016 30 845 24.95 9.6 49.3 67 3.9 38.9
06:40 1016 30 845 24.95 10.1 50.1 65 3.7 38.7
06:45 1016 30 845 24.95 10.6 51.1 64 4 39.3
06:50 1016 30 845 24.95 11.1 52 62 4.2 39.6
06:55 1016 30 845 24.95 11.1 52 62 4.1 39.4
07:00 1016 30 845 24.95 10.7 51.3 65 4.4 39.8
07:05 1016 30 845 24.95 10.7 51.2 66 4.6 40.4
07:10 1016 30 845 24.95 10.3 50.5 67 4.6 40.2
07:15 1016 30 845 24.95 10.5 50.8 66 4.4 40
07:20 1016 30 845 24.95 10.6 51 65 4.3 39.8
07:25 1016 30 845 24.95 11.2 52.2 59 3.5 38.3
07:30 1016 30 845 24.95 11.9 53.4 59 4.1 39.3
07:35 1016 30 845 24.95 12.2 54 57 3.9 39
07:40 1016 30 845 24.95 12.3 54.2 58 4.3 39.7
07:45 1016 30 845 24.95 12.8 55 55 3.9 39.1
07:50 1016 30 845 24.95 13.4 56 52 3.8 38.9
07:55 1016 30 845 24.95 14.3 57.7 48 3.6 38.5
08:00 1016 30 845 24.95 14.6 58.2 46 3.2 37.8
08:05 1016 30 845 24.95 15 59 47 3.8 38.9
08:10 1016 30 845 24.95 15.5 59.9 45 3.8 38.9
08:15 1016 30 845 24.95 15.2 59.3 46 3.7 38.7
08:20 1016 30 845 24.95 15 59 45 3.2 37.8
08:25 1016 30 845 24.95 15.8 60.4 44 3.5 38.3
08:30 1016 30 845 24.95 15.8 60.4 43 3.4 38.1
08:35 1016 30 845 24.95 16.4 61.5 41 3.2 37.8
08:40 1016 30 845 24.95 16.7 62.1 41 3.6 38.5
08:45 1016 30 845 24.95 15.8 60.4 42 3.2 37.7
08:50 1016 30 845 24.95 15.4 59.7 44 3.2 37.7
08:55 1016 30 845 24.95 15.4 59.7 43 3.1 37.6
09:00 1016 30 845 24.95 16.4 61.5 40 3 37.5
09:05 1016 30 845 24.95 16.3 61.4 41 3.3 37.9
09:10 1016 30 845 24.95 17 62.6 40 3.3 37.9
09:15 1016 30 845 24.95 17 62.6 41 3.7 38.6
09:20 1016 30 845 24.95 16.5 61.7 41 3.3 37.9
09:25 1016 30 845 24.95 16.2 61.1 43 3.7 38.7
09:30 1016 30 845 24.95 16.3 61.3 44 4 39.2
09:35 1016 30 845 24.95 16.6 61.8 42 3.6 38.4
09:40 1016 30 845 24.95 16.1 61 45 4.2 39.6
09:45 1016 30 845 24.95 16.9 62.3 43 4.2 39.5
09:50 1016 30 845 24.95 17.5 63.5 42 4.4 40
09:55 1015 29.97 845 24.95 17.6 63.7 41 4.2 39.6
10:00 1016 30 845 24.95 17.7 63.8 40 4.1 39.4
10:05 1016 30 845 24.95 17.1 62.8 42 4.3 39.7
10:10 1016 30 845 24.95 17.3 63.1 42 4.5 40.1
10:15 1016 30 845 24.95 17.9 64.2 41 4.4 39.9
10:20 1016 30 845 24.95 17.4 63.4 43 5 41
10:25 1015 29.97 845 24.95 16.9 62.4 43 4.4 39.9
10:30 1015 29.97 845 24.95 17.4 63.3 41 4 39.2
10:35 1015 29.97 845 24.95 17.8 64 38 3.3 37.9
10:40 1015 29.97 845 24.95 18.1 64.5 37 3.3 37.9
10:45 1015 29.97 845 24.95 18.2 64.8 39 4.2 39.6
10:50 1015 29.97 845 24.95 19.1 66.3 35 3.5 38.4
10:55 1015 29.97 845 24.95 19.1 66.4 35 3.6 38.5
11:00 1015 29.97 845 24.95 18 64.4 37 3.2 37.8
11:05 1015 29.97 844 24.92 19 66.1 33 2.7 36.8
11:10 1015 29.97 844 24.92 19.6 67.4 34 3.6 38.4
11:15 1015 29.97 844 24.92 19.5 67.2 34 3.4 38.1
11:20 1015 29.97 844 24.92 19.8 67.6 34 3.8 38.8
11:25 1015 29.97 844 24.92 19.1 66.4 36 3.8 38.9
11:30 1015 29.97 844 24.92 18.9 66.1 37 4 39.1
11:35 1015 29.97 844 24.92 18.5 65.2 38 3.9 38.9
11:40 1015 29.97 844 24.92 18 64.5 38 3.7 38.6
11:45 1015 29.97 844 24.92 18.2 64.8 38 3.8 38.9
11:50 1015 29.97 844 24.92 18.7 65.6 37 3.7 38.7
11:55 1015 29.97 844 24.92 19.4 66.9 35 3.6 38.5
12:00 1015 29.97 844 24.92 19.2 66.5 36 4 39.2
12:05 1015 29.97 844 24.92 18.6 65.5 37 3.9 39
12:10 1015 29.97 844 24.92 18.2 64.8 39 4.2 39.5
12:15 1015 29.97 844 24.92 17.8 64.1 41 4.7 40.4
12:20 1015 29.97 844 24.92 17.1 62.7 47 5.7 42.3
12:25 1015 29.97 844 24.92 16.4 61.6 57 7.9 46.2
12:30 1015 29.97 844 24.92 15.4 59.6 59 7.5 45.5
12:35 1015 29.97 844 24.92 14.9 58.8 58 6.7 44
12:40 1015 29.97 844 24.92 15 59 57 6.6 43.8
12:45 1015 29.97 844 24.92 15.2 59.4 60 7.6 45.6
12:50 1015 29.97 844 24.92 15.3 59.5 60 7.7 45.9
12:55 1015 29.97 844 24.92 15.5 59.9 57 7.1 44.8
13:00 1015 29.97 844 24.92 15.6 60.1 65 9.1 48.5
13:05 1014 29.94 844 24.92 15 58.9 60 7.4 45.3
13:10 1014 29.94 844 24.92 15.2 59.3 56 6.5 43.7
13:15 1014 29.94 844 24.92 15.7 60.2 55 6.6 43.9
13:20 1014 29.94 844 24.92 16.5 61.7 51 6.4 43.5
13:25 1014 29.94 844 24.92 16.5 61.7 49 6 42.8
13:30 1014 29.94 844 24.92 16 60.7 55 6.9 44.4
13:35 1015 29.97 844 24.92 15.9 60.7 54 6.7 44.1
13:40 1015 29.97 844 24.92 16 60.7 57 7.5 45.5
13:45 1015 29.97 844 24.92 16.3 61.4 55 7.4 45.3
13:50 1015 29.97 844 24.92 15.9 60.5 57 7.4 45.3
13:55 1015 29.97 844 24.92 15.9 60.7 52 6.3 43.3
14:00 1015 29.97 844 24.92 16 60.7 55 7 44.6
14:05 1015 29.97 844 24.92 15.9 60.7 54 6.7 44.1
14:10 1015 29.97 844 24.92 15.9 60.7 53 6.5 43.6
14:15 1015 29.97 844 24.92 15.8 60.5 56 7.2 44.9
14:20 1015 29.97 844 24.92 15.9 60.7 54 6.6 43.9
14:25 1015 29.97 844 24.92 16.3 61.3 48 5.3 41.6
14:30 1015 29.97 844 24.92 16.6 61.9 47 5.5 41.9
14:35 1015 29.97 844 24.92 17.1 62.8 50 6.6 43.8
14:40 1015 29.97 844 24.92 17.3 63.1 43 4.8 40.6
14:45 1015 29.97 844 24.92 17.4 63.4 44 5.1 41.2
14:50 1015 29.97 844 24.92 17.7 63.8 40 4 39.2
14:55 1015 29.97 844 24.92 17.9 64.3 40 4.3 39.8
15:00 1015 29.97 844 24.92 17.9 64.2 39 3.9 39
15:05 1015 29.97 844 24.92 18.9 66.1 35 3.1 37.6
15:10 1015 29.97 844 24.92 19.9 67.7 34 3.8 38.9
15:15 1015 29.97 844 24.92 19.3 66.8 40 5.6 42.2
15:20 1015 29.97 844 24.92 19.3 66.7 41 5.7 42.3
15:25 1015 29.97 844 24.92 18.5 65.3 42 5.3 41.6
15:30 1015 29.97 844 24.92 18.8 65.8 39 4.7 40.5
15:35 1015 29.97 844 24.92 19.1 66.4 38 4.5 40.1
15:40 1015 29.97 844 24.92 18.9 65.9 38 4.4 39.9
15:45 1015 29.97 844 24.92 18.4 65.2 38 3.9 39
15:50 1015 29.97 844 24.92 18.1 64.7 40 4.3 39.8
15:55 1015 29.97 844 24.92 17.7 63.9 40 4.2 39.5
16:00 1015 29.97 844 24.92 17 62.5 39 2.9 37.2
16:05 1015 29.97 844 24.92 16.6 61.8 44 4.4 39.9
16:10 1015 29.97 845 24.95 15.8 60.4 54 6.6 43.8
16:15 1016 30 845 24.95 15 59 65 8.5 47.4
16:20 1016 30 845 24.95 14.3 57.8 66 8 46.5
16:25 1016 30 845 24.95 14 57.2 69 8.4 47.2
16:30 1016 30 845 24.95 13.7 56.6 69 8.1 46.5
16:35 1016 30 845 24.95 13.3 56 68 7.6 45.7
16:40 1016 30 845 24.95 13.1 55.5 68 7.3 45.2
16:45 1016 30 845 24.95 12.8 55.1 68 7.2 44.9
16:50 1016 30 845 24.95 12.7 54.9 69 7.3 45.1
16:55 1016 30 845 24.95 12.5 54.5 72 7.6 45.7
17:00 1016 30 845 24.95 12.4 54.3 71 7.3 45.2
17:05 1016 30 846 24.98 12.3 54.1 72 7.4 45.3
17:10 1016 30 846 24.98 12.3 54.1 71 7.3 45.1
17:15 1016 30 846 24.98 12.4 54.3 71 7.2 45
17:20 1017 30.03 846 24.98 12.4 54.3 70 7.2 45
17:25 1017 30.03 846 24.98 12.5 54.4 71 7.3 45.2
17:30 1017 30.03 846 24.98 12.4 54.3 70 7.1 44.8
17:35 1017 30.03 846 24.98 12.3 54.2 70 7 44.6
17:40 1017 30.03 846 24.98 12.4 54.3 69 6.9 44.4
17:45 1017 30.03 846 24.98 12.5 54.6 69 7.1 44.8
17:50 1017 30.03 846 24.98 12.5 54.5 69 7 44.6
17:55 1017 30.03 846 24.98 12.6 54.7 69 7.2 45
18:00 1017 30.03 846 24.98 12.6 54.7 68 6.9 44.4
18:05 1017 30.03 846 24.98 12.5 54.6 69 7 44.7
18:10 1017 30.03 846 24.98 12.5 54.5 68 6.8 44.2
18:15 1017 30.03 846 24.98 12.4 54.3 69 6.8 44.3
18:20 1016 30 846 24.98 12.2 54 70 7 44.6
18:25 1016 30 846 24.98 12.2 53.9 69 6.7 44
18:30 1016 30 846 24.98 12 53.6 70 6.8 44.2
18:35 1016 30 846 24.98 11.9 53.4 70 6.7 44
18:40 1016 30 846 24.98 11.9 53.5 72 7.1 44.7
18:45 1017 30.03 846 24.98 11.9 53.5 72 7 44.6
18:50 1017 30.03 846 24.98 11.8 53.2 73 7.2 44.9
18:55 1017 30.03 846 24.98 11.7 53.1 74 7.2 45
19:00 1017 30.03 846 24.98 11.7 53.1 73 7.2 44.9
19:05 1017 30.03 846 24.98 11.7 53 73 7 44.5
19:10 1017 30.03 846 24.98 11.7 53 72 6.8 44.3
19:15 1017 30.03 846 24.98 11.7 53 73 7 44.5
19:20 1017 30.03 846 24.98 11.6 52.8 73 7 44.6
19:25 1017 30.03 846 24.98 11.4 52.6 74 6.9 44.5
19:30 1017 30.03 846 24.98 11.5 52.7 73 6.8 44.2
19:35 1017 30.03 846 24.98 11.5 52.7 72 6.6 43.9
19:40 1017 30.03 846 24.98 11.7 53 71 6.7 44.1
19:45 1017 30.03 846 24.98 11.6 52.9 71 6.6 43.9
19:50 1017 30.03 846 24.98 11.7 53 71 6.6 43.9
19:55 1017 30.03 846 24.98 11.7 53 72 6.9 44.4
20:00 1017 30.03 846 24.98 11.7 53 73 7.1 44.8
20:05 1017 30.03 846 24.98 11.6 52.8 75 7.3 45.1
20:10 1017 30.03 846 24.98 11.4 52.6 75 7.3 45.1
20:15 1017 30.03 847 25.01 11.5 52.8 75 7.3 45.2
20:20 1017 30.03 847 25.01 11.6 52.8 76 7.5 45.5
20:25 1017 30.03 847 25.01 11.6 52.8 77 7.6 45.7
20:30 1017 30.03 847 25.01 11.6 52.8 76 7.5 45.5
20:35 1017 30.03 847 25.01 11.5 52.7 75 7.2 45
20:40 1017 30.03 847 25.01 11.5 52.8 74 7 44.6
20:45 1017 30.03 847 25.01 11.6 52.8 73 6.9 44.3
20:50 1017 30.03 847 25.01 11.5 52.8 73 7 44.5
20:55 1017 30.03 847 25.01 11.5 52.8 75 7.2 44.9
21:00 1017 30.03 847 25.01 11.5 52.6 75 7.1 44.8
21:05 1017 30.03 847 25.01 11.3 52.4 76 7.2 45
21:10 1017 30.03 847 25.01 11.3 52.4 76 7.3 45.2
21:15 1017 30.03 847 25.01 11.3 52.3 76 7.3 45.2
21:20 1017 30.03 847 25.01 11.3 52.3 76 7.3 45.2
21:25 1018 30.06 847 25.01 11.3 52.3 76 7.2 45
21:30 1018 30.06 847 25.01 11.2 52.1 77 7.3 45.1
21:35 1018 30.06 847 25.01 11.1 51.9 75 6.9 44.4
21:40 1018 30.06 847 25.01 11.1 52 76 7 44.6
21:45 1018 30.06 847 25.01 11.2 52.2 76 7.1 44.9
21:50 1018 30.06 847 25.01 11.1 52 76 7.1 44.8
21:55 1018 30.06 847 25.01 11 51.9 76 7.1 44.7
22:00 1018 30.06 847 25.01 11.1 51.9 77 7.2 45
22:05 1018 30.06 847 25.01 11 51.8 78 7.3 45.2
22:10 1018 30.06 847 25.01 10.9 51.6 79 7.4 45.3
22:15 1018 30.06 847 25.01 10.8 51.5 80 7.5 45.4
22:20 1018 30.06 847 25.01 10.8 51.4 79 7.3 45.2
22:25 1018 30.06 847 25.01 10.6 51.1 79 7.2 44.9
22:30 1018 30.06 847 25.01 10.5 50.9 80 7.2 44.9
22:35 1018 30.06 847 25.01 10.3 50.6 81 7.2 44.9
22:40 1018 30.06 847 25.01 10.2 50.4 82 7.2 45
22:45 1018 30.06 847 25.01 10 50 83 7.2 45
22:50 1018 30.06 847 25.01 9.8 49.6 83 7 44.7
22:55 1018 30.06 847 25.01 9.6 49.4 84 7 44.6
23:00 1018 30.06 847 25.01 9.6 49.3 84 7 44.5
23:05 1018 30.06 847 25.01 9.6 49.3 83 6.9 44.5
23:10 1018 30.06 847 25.01 9.5 49.1 84 6.9 44.4
23:15 1018 30.06 847 25.01 9.5 49.2 83 6.8 44.3
23:20 1018 30.06 847 25.01 9.4 49 83 6.7 44.1
23:25 1018 30.06 847 25.01 9.5 49.1 83 6.8 44.2
23:30 1018 30.06 847 25.01 9.5 49.1 83 6.7 44
23:35 1018 30.06 847 25.01 9.5 49 83 6.7 44.1
23:40 1018 30.06 847 25.01 9.6 49.2 83 6.8 44.2
23:45 1018 30.06 847 25.01 9.6 49.4 82 6.7 44.1
23:50 1018 30.06 847 25.01 9.7 49.5 81 6.6 43.9
23:55 1018 30.06 847 25.01 9.8 49.6 79 6.3 43.4
24:00 1018 30.06 847 25.01 9.9 49.8 78 6.2 43.1